Theta_e
319 318 320 323 323 326 329 334 334 332 330 320 318 320 318 320 321 321 320 320 321 320 320 320 321 320 318 319 320 322 322 321 323 328 326 331 338 334 337 344 346 345 343 342 341 342 342 343 343 342 342 342 341 341 341 340 339 338 337 336 336 336 338 338 339 339 338 338 338 339 339 338 338 338 338 338 337 337 337 336 335 334 334 333 333 331 330 328 327 326 324 322 321 322 322 323 323
321 321 322 323 322 327 335 340 333 327 325 316 315 320 317 320 321 320 321 320 321 320 321 322 322 321 319 319 321 325 327 325 328 331 332 332 333 333 338 343 346 345 343 342 341 342 343 343 343 342 343 342 341 341 341 340 339 339 338 337 336 336 338 339 337 338 338 338 338 337 337 338 338 338 338 338 337 337 336 336 336 336 336 335 333 330 328 326 324 322 320 317 315 315 317 320 320
321 323 323 323 326 329 338 340 330 324 321 315 313 317 318 320 321 320 321 319 320 320 321 322 321 319 319 321 320 324 326 328 331 330 332 332 332 333 337 342 345 345 343 342 341 342 343 342 343 343 343 342 341 341 341 340 340 340 339 338 337 336 337 338 337 337 338 337 337 335 334 337 338 338 338 338 337 336 336 335 336 336 336 334 331 327 326 324 323 322 320 315 310 310 312 314 317
320 323 323 325 336 337 338 334 333 329 318 317 316 315 320 319 320 320 320 320 320 321 320 320 319 317 320 322 319 322 323 326 332 331 331 334 335 333 336 341 343 345 343 343 341 340 341 342 342 342 343 343 343 342 342 341 340 340 339 338 337 336 336 337 337 336 337 337 337 335 335 336 337 338 337 337 336 336 335 335 335 335 335 334 331 328 326 325 325 324 321 315 309 309 312 314 315
320 322 322 324 337 335 332 329 333 331 317 321 320 314 320 319 320 319 319 320 319 321 319 319 318 317 322 323 321 325 324 324 330 333 333 335 336 333 337 340 342 346 344 342 341 341 341 341 342 342 342 343 343 342 342 341 341 340 339 338 336 335 334 336 337 336 335 336 337 336 336 335 336 336 336 336 335 335 335 334 334 334 334 333 331 328 326 325 326 326 322 313 309 311 313 312 311
321 323 323 325 329 327 334 328 321 322 316 324 320 314 319 318 320 319 318 317 317 320 319 319 319 321 325 325 324 328 328 324 330 333 334 336 338 336 337 340 343 345 344 343 341 342 343 342 341 342 342 342 343 342 342 342 341 340 339 338 336 334 333 334 336 336 333 334 336 336 335 334 334 335 335 334 334 334 334 334 333 333 333 331 329 327 326 327 327 325 320 312 309 311 310 307 308
323 325 328 332 331 329 336 325 317 320 318 320 319 317 319 318 319 318 318 317 317 318 317 319 319 324 324 324 325 328 331 329 331 334 334 336 339 339 338 340 342 342 343 344 341 342 343 342 342 341 341 342 343 343 342 342 341 340 339 338 336 334 332 332 332 332 332 331 333 334 334 333 332 333 333 334 334 334 334 334 333 333 332 329 328 327 328 328 327 323 317 309 308 307 303 303 306
323 324 332 339 336 335 333 322 320 323 320 317 318 319 318 319 318 316 318 318 318 316 317 317 319 324 319 322 324 324 330 332 333 334 334 336 339 340 339 339 341 343 343 344 343 343 343 342 342 341 342 342 343 342 342 342 341 340 340 338 337 334 333 332 330 330 331 330 331 333 333 332 331 331 332 332 334 334 334 334 333 332 330 328 328 329 329 327 324 320 313 307 305 303 300 301 302
323 324 332 338 332 331 327 320 319 320 320 318 318 320 320 320 319 317 317 317 318 317 318 316 320 325 319 320 322 321 327 330 333 333 331 334 340 340 339 342 342 344 344 343 343 343 343 342 342 342 342 342 342 342 342 342 341 341 340 339 337 335 333 333 332 332 332 331 333 333 334 333 330 330 330 332 333 334 334 334 333 332 330 329 329 329 328 326 322 317 311 305 302 300 299 300 300
326 323 328 337 328 323 320 318 319 319 319 319 318 319 319 319 319 319 317 317 318 317 317 316 320 323 319 319 321 320 322 327 332 333 331 331 338 341 340 342 342 343 343 342 342 342 342 341 341 341 342 342 342 342 342 342 341 341 341 339 337 336 335 334 334 334 333 332 333 333 334 334 332 331 331 332 333 334 334 334 333 331 330 330 330 329 327 325 322 317 311 304 300 299 299 300 300
332 328 332 337 327 319 319 320 320 320 318 318 318 318 319 319 319 317 318 317 318 319 317 317 317 318 317 318 319 316 315 323 329 332 334 330 332 339 340 340 340 342 342 341 341 340 340 339 339 340 342 342 342 342 342 341 341 341 341 340 337 336 335 335 335 335 334 333 333 334 334 335 334 333 333 333 333 334 334 334 333 332 331 331 330 329 327 326 322 317 313 305 300 299 299 300 301
331 332 337 328 320 321 322 323 320 320 319 318 318 318 318 319 319 317 318 317 317 319 317 317 316 317 319 318 317 312 311 318 325 331 335 333 329 333 338 340 340 339 339 340 340 340 339 338 338 339 341 341 342 342 342 341 341 341 341 340 338 337 336 335 335 335 335 333 333 334 334 335 335 334 334 334 334 334 334 334 333 332 332 331 330 329 327 326 321 317 315 309 301 298 299 300 301
327 330 336 322 322 327 323 322 321 322 319 318 319 317 318 318 318 316 318 318 317 319 316 316 315 317 319 317 316 313 311 313 323 331 332 332 328 327 332 336 338 337 337 337 339 340 340 339 338 339 341 341 342 342 341 341 341 341 341 340 339 337 336 335 335 335 335 334 333 334 334 334 335 335 335 334 334 334 334 333 333 332 332 331 330 328 327 325 321 317 316 312 304 299 299 300 300
326 326 331 324 325 328 325 322 321 324 318 317 319 317 318 317 318 317 319 318 317 318 315 314 315 318 317 314 317 316 313 312 321 330 330 330 328 325 327 330 334 336 336 335 337 338 339 340 339 340 341 341 341 340 340 340 340 341 340 340 339 338 337 335 334 334 335 335 334 334 334 334 334 335 335 334 334 333 333 332 332 333 332 331 329 328 327 324 320 319 317 315 310 303 299 299 300
325 329 331 324 322 321 323 325 325 326 319 317 318 316 319 317 318 319 319 318 316 315 314 314 314 317 317 315 318 315 313 313 319 327 328 328 328 324 323 327 331 332 334 333 335 337 338 339 340 341 340 340 339 339 339 339 340 341 341 340 340 339 338 336 334 334 334 335 335 334 334 334 334 334 335 334 334 334 333 333 332 332 332 330 329 328 327 324 321 320 319 317 315 310 304 300 299
326 335 333 322 320 318 319 322 325 324 318 319 318 317 319 316 318 319 317 318 317 315 315 316 314 315 317 316 316 312 313 315 318 325 327 328 328 323 321 323 325 325 326 327 330 334 336 338 339 340 339 340 339 338 338 337 339 340 340 340 340 339 338 336 335 334 334 334 334 334 334 334 333 334 335 334 334 334 334 333 332 332 331 330 328 328 327 324 322 321 320 320 318 316 312 307 302
336 342 332 322 319 318 317 319 325 323 319 320 317 318 319 316 317 316 315 317 317 314 313 314 312 312 314 314 313 312 315 316 318 323 325 325 324 320 319 320 320 320 320 321 324 327 332 336 338 338 338 339 339 339 339 339 339 339 340 339 340 339 338 337 335 334 334 334 334 333 334 334 334 333 334 334 334 333 334 334 332 332 331 330 329 328 327 325 323 322 322 322 321 319 318 315 311
341 339 328 322 318 317 317 319 324 323 319 319 317 318 319 317 318 317 315 316 315 314 313 312 311 311 311 312 313 314 316 316 317 318 319 319 318 317 317 318 318 318 318 319 319 322 326 331 335 337 337 338 339 339 339 340 341 340 339 339 339 338 339 338 336 334 333 334 334 333 333 333 333 333 334 334 334 334 334 334 333 332 331 330 330 328 328 327 325 324 324 323 323 322 321 319 317
330 333 327 320 318 317 317 319 320 320 319 318 318 319 319 318 318 316 315 315 316 318 314 311 312 312 312 312 313 314 315 316 316 316 316 315 315 315 315 316 316 316 317 317 318 318 320 324 330 334 336 338 338 338 338 340 340 339 338 338 338 337 338 338 337 336 335 334 333 333 332 332 334 335 335 334 334 334 334 334 333 332 332 331 330 329 328 327 326 325 324 323 323 322 322 320 318
325 333 328 317 318 317 316 319 318 318 319 319 318 317 317 317 316 316 316 316 318 320 316 314 314 312 312 312 312 314 314 314 315 315 315 314 314 314 314 315 315 315 316 316 317 317 317 319 325 330 333 336 338 338 338 338 338 338 338 337 338 337 337 337 336 337 336 335 335 334 333 334 335 336 336 335 334 334 334 334 333 332 332 331 330 329 328 327 326 325 324 323 322 322 322 320 319
324 329 324 316 318 318 317 319 319 318 318 319 318 316 316 315 316 316 316 317 318 317 315 316 315 313 313 312 311 312 313 313 313 313 314 313 313 313 313 314 314 314 315 316 316 316 316 316 319 325 330 333 336 337 337 336 336 337 338 337 337 338 337 337 337 337 337 336 336 336 335 335 336 335 335 335 335 334 334 333 333 333 332 331 330 329 328 328 326 325 325 323 322 322 322 321 319
322 320 320 318 319 318 317 319 319 318 318 319 317 316 316 315 316 317 317 318 320 317 314 314 314 312 313 312 311 311 311 312 312 312 313 313 312 312 312 313 313 314 314 315 314 314 315 315 317 320 326 332 335 336 336 335 335 336 338 339 338 338 338 337 337 337 337 336 336 336 335 335 334 334 335 335 335 334 334 333 333 333 332 331 330 330 329 329 327 325 324 324 323 323 322 322 321
323 319 318 320 319 318 317 319 319 317 318 318 317 316 316 317 316 318 321 319 318 315 312 312 311 310 311 310 310 310 310 310 311 311 311 312 312 311 312 312 313 313 314 314 313 313 315 318 318 318 322 330 334 335 336 335 335 336 337 339 339 338 338 338 337 336 336 336 336 335 334 334 334 333 334 334 333 333 333 333 333 333 332 331 330 330 330 330 328 325 324 324 324 323 323 322 321
324 320 318 320 318 318 319 320 318 317 318 316 316 316 316 318 315 319 323 315 312 311 309 309 309 309 309 310 309 309 309 310 311 311 311 311 311 311 311 312 313 313 314 314 313 312 316 319 319 318 321 329 335 335 334 334 335 336 336 338 338 337 337 337 335 335 335 335 334 334 333 333 334 333 333 333 332 332 332 332 332 332 332 331 330 330 330 330 327 325 325 325 324 323 323 322 321
321 319 318 320 318 318 321 321 318 317 318 316 316 316 317 318 314 319 320 311 311 310 308 308 308 309 309 310 309 307 308 309 310 310 310 310 310 310 311 312 313 314 314 315 314 313 316 319 320 320 322 329 333 332 332 334 335 335 335 336 336 336 335 335 334 334 334 334 334 334 333 333 334 333 333 333 332 332 331 331 332 331 331 331 331 330 329 329 328 326 326 325 324 323 323 322 321
318 318 318 319 318 318 320 320 319 318 318 316 316 317 319 318 314 316 315 310 311 310 309 310 309 310 310 311 308 306 307 308 309 309 308 309 309 310 312 313 314 315 315 315 315 315 316 318 321 322 324 328 329 329 332 333 334 334 334 334 334 334 334 333 334 333 333 333 333 333 333 333 332 332 332 332 332 331 330 331 331 330 330 330 330 329 329 329 328 327 326 325 324 323 323 321 321
317 319 318 319 319 318 318 318 319 318 317 317 316 318 318 316 315 316 313 309 311 310 311 311 311 311 311 310 308 306 307 307 308 308 307 307 307 310 313 314 314 315 316 316 316 316 317 318 321 324 326 327 327 329 332 332 333 333 332 332 332 333 332 332 332 331 331 331 331 331 332 331 331 331 331 331 331 330 330 330 330 329 329 329 329 329 329 328 328 328 326 325 323 323 322 320 321
317 318 318 320 320 318 318 318 319 317 316 317 317 317 316 314 315 318 314 309 310 311 311 311 311 312 311 311 309 306 306 306 307 306 306 307 306 308 311 314 315 316 316 316 316 317 318 319 321 325 326 327 328 330 331 331 331 330 330 330 330 330 330 330 329 329 329 329 329 329 329 329 329 329 329 329 329 328 328 329 328 328 328 327 328 327 327 327 327 327 326 325 324 323 322 320 320
317 317 318 322 321 319 319 317 318 317 316 317 316 316 318 315 315 317 312 309 310 310 311 311 311 311 311 311 309 306 305 305 306 305 306 306 306 307 309 313 315 315 315 316 316 316 319 319 321 325 326 327 329 329 329 329 329 328 328 328 327 327 327 327 327 326 326 326 326 326 327 327 327 327 327 327 327 326 326 326 326 326 326 326 326 326 326 326 326 325 325 324 324 323 322 321 320
318 316 317 322 322 324 322 316 318 318 316 317 316 318 325 322 315 313 310 309 311 311 311 311 311 311 311 310 310 308 305 304 305 304 305 305 305 308 310 313 315 315 315 316 316 316 318 320 322 323 324 326 327 327 328 327 326 325 325 325 325 325 325 325 324 324 324 324 324 324 325 325 325 326 325 325 324 324 324 324 324 323 324 324 324 325 325 325 324 324 323 323 323 322 322 321 321
320 318 320 323 321 329 327 315 318 318 314 316 316 318 326 324 315 310 310 310 311 311 311 311 311 310 310 310 310 309 305 304 304 304 305 304 304 309 313 314 315 315 314 315 315 314 317 319 321 321 323 325 324 324 326 325 324 324 323 323 323 324 323 323 322 322 322 321 322 322 323 323 323 323 323 323 322 321 322 321 319 319 320 321 322 321 322 322 321 321 320 320 320 319 319 319 319
318 319 329 328 319 331 329 314 317 318 314 314 316 319 321 320 315 310 310 311 311 312 311 311 311 310 310 310 309 309 305 303 304 304 304 303 304 309 314 314 314 314 313 314 313 314 315 317 320 321 321 322 321 322 323 322 321 323 322 320 321 322 321 320 319 319 318 319 320 320 320 321 320 320 320 320 320 318 318 317 315 316 317 318 318 318 318 317 317 316 315 315 315 315 315 315 315
324 319 329 331 321 326 325 315 317 318 315 313 315 320 321 319 315 310 310 311 311 311 311 311 310 310 310 309 307 307 306 304 303 303 303 303 304 308 313 314 314 313 312 312 313 313 314 314 317 319 318 318 319 319 318 318 319 320 319 317 318 319 318 317 316 316 317 317 319 318 317 318 317 317 317 317 317 316 315 315 313 314 315 315 315 314 312 311 310 310 308 307 308 309 310 311 312
330 321 322 326 323 322 321 320 318 316 317 314 314 317 319 319 314 311 311 311 312 312 311 311 310 309 309 309 307 306 306 305 303 303 303 303 303 307 312 313 312 312 311 311 312 312 312 312 313 314 313 314 316 315 314 316 317 316 315 314 314 315 314 313 313 314 315 315 316 315 315 315 314 314 314 315 315 313 313 312 311 312 312 313 312 310 308 306 306 305 302 301 301 302 304 306 307
331 326 323 324 323 322 322 322 319 316 316 316 316 315 315 317 315 312 311 310 311 312 311 310 310 309 309 308 307 306 306 305 303 302 303 303 303 307 311 312 311 311 310 309 310 311 310 310 310 310 310 311 312 311 312 313 313 312 311 310 311 310 309 310 311 312 311 312 311 311 312 311 311 311 311 312 311 310 310 310 309 309 310 310 310 308 306 304 303 302 299 297 297 297 298 302 303
331 330 329 327 325 324 323 322 319 316 316 317 317 316 315 315 316 315 311 311 311 311 312 311 310 309 309 309 308 307 306 304 302 302 303 302 303 307 311 311 310 310 309 308 308 309 308 307 307 307 308 309 309 308 309 310 309 308 308 309 308 307 307 308 309 309 308 308 308 308 309 308 308 308 308 309 308 307 306 305 305 305 306 307 307 306 304 303 302 301 298 295 295 295 295 299 303
324 324 325 326 324 324 323 321 319 316 317 320 318 316 317 316 318 317 311 311 311 311 312 312 310 309 309 309 309 307 305 303 302 302 303 303 303 306 309 310 309 309 308 307 307 307 307 306 306 305 305 306 307 307 309 309 308 308 306 305 304 302 303 305 305 305 305 305 305 306 306 306 306 305 305 304 303 302 301 300 301 302 303 304 304 304 303 302 300 298 295 293 293 294 293 295 300
320 321 321 323 324 324 323 320 318 317 318 323 322 318 319 319 319 318 313 311 312 311 312 312 310 310 309 309 309 307 305 303 302 302 302 302 303 305 308 309 309 309 308 307 307 307 307 306 306 305 304 305 307 308 310 310 308 308 307 303 301 300 300 302 301 300 301 301 302 303 302 302 303 301 300 299 298 297 296 296 296 297 299 301 301 300 299 297 296 294 293 291 291 291 291 292 295
320 322 320 323 326 324 323 321 318 317 319 326 327 321 320 320 319 319 315 312 312 310 310 312 311 310 309 309 308 307 305 303 302 302 302 302 303 305 307 307 307 308 308 306 306 307 307 306 306 306 305 305 306 307 309 309 305 306 307 303 301 300 297 297 298 297 298 299 299 299 299 299 299 297 296 295 294 293 293 292 292 292 293 294 294 294 293 291 291 291 291 290 290 290 290 291 292
323 323 320 324 327 323 324 324 319 317 319 322 324 321 319 318 318 320 317 313 314 312 312 313 312 310 308 308 308 306 304 303 303 303 302 302 302 304 305 306 306 307 307 306 306 306 306 305 306 306 305 304 305 306 307 306 303 303 303 301 300 298 294 294 296 295 296 296 295 295 295 294 294 293 292 292 292 291 291 291 291 291 291 291 291 290 290 289 289 289 289 290 289 289 289 289 290
326 327 324 326 327 323 323 323 320 322 324 320 319 322 325 323 320 320 318 314 315 315 314 316 314 311 310 309 307 305 304 303 302 303 302 301 302 302 304 305 305 305 306 306 305 305 305 304 305 304 303 303 304 305 305 305 303 301 299 297 296 294 292 293 293 292 292 292 291 291 291 291 291 291 291 291 291 291 291 290 290 290 290 290 290 289 289 288 288 288 288 289 289 288 288 288 288
325 329 327 324 325 324 323 324 323 328 332 325 320 328 337 335 327 323 320 315 315 315 314 316 314 311 311 309 307 305 305 303 302 302 302 301 301 302 303 304 304 303 304 305 304 304 304 304 304 303 302 302 303 303 303 303 303 301 298 295 293 292 290 290 290 289 289 289 289 289 290 290 290 290 290 290 290 290 290 290 290 289 289 289 289 288 288 288 288 287 287 288 288 288 288 288 287
324 328 328 325 323 323 324 324 324 330 335 325 320 329 335 331 327 326 324 319 317 315 313 314 312 311 310 308 306 305 305 303 302 302 301 300 301 301 302 303 303 302 302 303 303 302 303 303 303 302 302 301 301 300 300 302 301 298 297 294 292 291 289 288 288 288 288 288 288 289 289 289 289 289 289 289 289 289 289 289 289 288 288 288 288 287 287 287 287 287 287 287 287 287 287 287 287
328 328 329 328 322 323 325 324 325 332 333 325 321 327 328 326 325 324 324 323 319 315 313 312 310 309 308 307 306 305 304 303 302 303 301 299 300 301 301 302 302 301 301 302 302 301 301 301 301 300 300 299 299 297 297 299 299 296 294 292 290 289 288 287 287 287 288 288 288 288 288 288 288 288 288 288 288 288 288 288 288 288 288 287 287 287 287 287 287 287 287 287 287 286 287 286 286
328 326 330 331 327 329 331 328 328 329 329 326 323 325 327 328 328 323 319 321 322 317 313 311 309 307 307 306 306 305 304 303 302 302 301 299 300 301 301 302 301 300 301 301 301 300 299 299 299 298 298 298 297 296 295 296 297 295 293 291 289 288 287 287 287 287 287 288 288 287 287 287 287 287 287 287 287 287 288 288 288 288 288 287 287 287 287 287 287 287 286 286 286 286 286 286 286
324 324 329 332 331 332 332 331 330 328 329 328 326 325 327 330 330 323 318 320 323 320 315 312 309 307 306 305 305 304 304 303 302 301 300 300 300 300 300 300 300 299 300 300 300 300 299 298 298 298 298 298 297 297 296 295 294 294 291 290 288 287 287 287 287 287 287 287 287 287 287 287 287 287 287 287 287 288 288 288 288 288 288 287 287 287 287 287 286 286 286 286 286 286 285 285 285
324 328 331 332 332 332 333 331 328 328 329 328 327 325 326 330 328 323 321 322 323 319 317 316 311 308 306 305 304 304 302 302 302 300 299 299 299 299 299 299 299 298 299 299 299 299 299 298 298 298 297 298 297 297 296 295 293 292 290 289 288 287 287 287 287 287 286 287 287 287 287 287 287 287 287 288 288 288 288 288 288 287 287 287 287 287 286 286 286 286 285 285 285 285 285 285 284
324 332 332 330 331 332 331 325 324 328 329 328 327 324 323 328 327 322 321 322 321 320 320 319 313 308 306 305 304 303 302 301 301 301 299 297 297 297 297 298 298 297 298 298 298 298 298 298 298 298 297 297 297 296 296 294 291 290 290 289 288 288 288 288 287 287 287 287 287 287 287 287 287 287 288 288 287 287 287 287 287 287 287 286 286 286 286 286 285 285 285 285 285 285 284 284 284
324 329 329 328 329 330 330 325 324 327 327 323 322 322 323 325 325 323 321 321 322 322 321 319 314 308 305 305 303 303 302 301 301 300 298 295 295 296 296 296 296 296 297 297 297 297 297 297 298 297 296 296 296 295 294 292 290 290 289 289 289 288 288 288 288 287 287 287 287 287 287 287 287 287 287 287 287 287 287 286 286 286 286 286 286 286 286 285 285 285 285 285 284 284 284 284 284
322 324 327 329 328 330 332 329 327 328 327 322 318 321 324 325 325 323 321 320 320 319 319 317 312 308 305 304 303 302 302 301 300 299 297 296 295 295 295 295 296 296 296 296 296 296 297 297 297 297 295 294 294 293 292 291 290 290 289 289 289 288 288 288 288 288 288 288 288 288 288 288 287 287 287 286 286 286 286 286 286 286 286 286 286 286 286 285 285 285 285 284 284 284 284 284 284
320 322 325 327 329 334 335 331 330 330 329 322 317 322 328 329 326 320 317 316 315 316 316 313 310 307 305 304 303 302 301 300 300 298 297 295 294 295 295 295 295 296 296 295 295 296 296 296 296 295 293 293 292 291 291 290 290 290 289 289 288 288 288 288 288 288 288 288 288 288 287 287 287 287 286 286 286 286 286 286 286 286 286 286 286 286 285 285 285 285 284 284 284 284 284 284 283
321 323 325 326 330 333 330 328 326 326 326 322 319 325 328 326 321 315 313 312 312 314 312 310 309 307 305 304 302 302 301 300 299 297 296 295 294 295 295 295 295 295 295 295 294 295 295 295 295 294 293 292 292 291 291 290 290 290 290 289 289 289 288 288 288 288 288 288 288 287 287 287 286 286 286 286 286 286 286 286 286 286 286 286 286 285 285 285 285 285 284 284 284 283 283 283 283
322 322 324 325 329 329 327 327 322 321 326 325 322 325 325 322 320 317 314 312 311 311 310 309 308 306 304 304 302 301 300 299 298 297 296 294 293 294 294 295 295 295 295 294 294 295 295 295 294 293 293 292 292 291 291 291 291 291 290 290 289 289 289 289 288 288 288 287 287 287 287 286 286 286 286 286 286 286 286 286 286 286 286 286 286 285 285 285 285 285 284 284 284 283 283 283 283
322 324 324 322 326 328 329 331 326 324 328 327 324 324 324 323 322 318 314 314 314 312 311 309 306 305 304 303 302 301 300 299 298 297 295 294 293 293 294 294 295 295 295 294 294 294 295 294 294 293 292 292 292 292 291 291 291 291 290 290 290 289 289 289 288 288 287 287 286 286 286 286 286 286 286 286 286 286 286 286 286 286 286 285 285 285 285 285 285 284 284 284 283 283 283 283 283
323 326 323 324 329 328 327 329 329 329 329 328 327 325 322 322 323 322 317 316 317 314 311 308 307 305 304 303 302 301 300 299 298 297 296 294 293 293 294 294 294 295 295 294 294 294 294 294 293 293 292 292 292 291 291 291 291 290 290 290 289 289 289 288 288 288 287 287 286 286 286 286 286 286 286 286 286 286 286 286 285 285 285 285 285 285 285 284 284 284 284 283 283 283 283 282 282
320 321 318 322 327 326 327 327 328 330 329 329 330 326 324 322 322 324 321 316 316 314 310 308 306 305 303 303 302 301 300 299 297 297 296 294 293 293 293 294 294 295 294 294 294 293 293 293 292 292 292 291 291 291 291 290 290 290 290 289 289 289 288 288 288 287 287 287 286 286 286 286 286 286 286 286 286 285 285 285 285 285 285 285 285 285 284 284 284 283 283 283 283 282 282 282 282
319 320 319 321 321 322 325 325 326 330 330 330 329 326 327 325 320 320 319 316 314 312 311 309 306 305 304 303 302 301 300 299 298 297 296 294 293 293 293 294 294 294 294 293 293 293 292 292 292 292 291 291 291 291 290 290 290 289 289 289 288 288 288 288 287 287 287 287 286 286 286 286 286 285 285 285 285 285 285 285 285 285 285 285 285 284 284 284 283 283 282 282 282 282 282 282 281
319 319 320 320 320 322 324 324 325 326 326 330 329 326 326 322 318 320 319 316 314 311 311 310 307 305 304 303 302 301 300 299 298 297 296 294 292 292 293 293 293 294 293 293 293 292 292 292 291 291 291 291 290 290 290 290 289 289 289 288 288 288 287 287 287 287 286 286 286 286 286 285 285 285 285 285 285 285 285 285 285 285 285 285 284 284 283 283 282 282 282 282 282 281 281 281 281
Wind_Speed
12 12 8 8 7 7 6 3 3 3 4 4 2 3 2 3 4 4 5 3 2 2 2 2 2 3 6 8 9 10 6 3 1 3 3 3 6 7 9 14 18 19 19 18 17 15 12 12 12 12 11 11 10 9 9 9 9 9 10 10 10 11 11 12 12 11 11 11 11 11 11 12 12 12 13 13 13 14 14 14 14 14 14 14 15 15 16 16 16 16 15 14 13 12 11 10 9
12 11 8 8 5 3 2 3 4 2 5 4 1 3 1 4 6 5 5 4 1 4 1 3 4 6 8 10 9 10 8 7 5 4 4 6 8 9 11 14 17 16 17 19 19 17 15 14 13 12 12 11 10 9 9 9 9 9 9 9 9 10 11 11 11 11 10 11 11 10 10 11 12 12 12 12 12 13 13 13 13 13 13 14 15 15 16 16 16 16 15 15 13 11 10 9 7
11 11 10 9 4 3 1 3 5 3 5 4 2 1 2 6 6 5 5 4 2 3 1 4 5 5 7 9 6 7 3 4 6 3 4 5 4 6 10 13 16 13 14 17 19 18 16 16 14 13 12 12 11 10 9 9 9 9 8 9 9 9 10 10 10 10 10 11 10 10 10 11 11 11 11 11 11 11 12 12 12 13 13 14 15 15 16 16 16 17 17 17 15 12 9 7 6
10 10 11 8 4 3 3 3 3 5 4 4 2 2 4 6 6 6 4 2 2 2 2 3 5 4 7 8 3 5 3 1 6 4 3 4 4 6 10 13 15 13 13 16 18 18 16 16 15 13 13 12 12 11 10 9 9 8 8 9 9 9 10 10 10 10 10 10 10 10 10 10 11 10 10 9 10 10 11 11 12 12 13 14 13 14 16 17 18 20 20 19 16 13 9 7 6
11 9 7 4 3 2 2 2 2 5 3 4 3 1 5 7 6 6 3 1 3 5 3 3 3 2 6 5 1 3 2 2 5 8 4 4 6 7 10 13 15 14 13 14 15 16 15 15 15 13 12 11 11 11 11 10 9 8 8 9 9 9 9 10 10 9 9 10 10 10 10 10 9 9 8 8 9 9 10 11 12 12 12 12 12 13 16 19 20 22 21 20 17 13 10 8 7
13 10 3 1 1 1 3 3 4 5 1 4 5 3 6 7 7 7 3 2 3 4 5 4 4 4 5 3 4 4 3 1 3 7 4 5 7 7 10 13 15 15 14 14 13 13 12 14 13 12 12 11 11 11 10 10 9 9 9 9 9 9 9 9 9 9 9 9 9 9 10 9 9 8 8 7 8 8 10 11 12 11 11 11 12 14 17 19 21 22 21 20 16 13 10 8 8
11 8 2 3 2 1 5 4 4 4 2 2 6 5 7 7 6 7 4 2 4 4 5 5 6 7 3 1 4 6 9 7 4 5 4 6 7 7 11 13 13 13 15 15 12 11 11 12 12 11 11 11 11 10 10 9 9 9 9 10 9 9 9 9 9 10 9 10 9 9 9 9 8 7 7 7 7 8 10 10 11 10 10 11 13 15 17 19 21 21 21 19 16 13 11 9 9
6 2 1 4 2 3 5 4 3 2 2 2 4 5 7 7 5 6 5 3 1 2 4 3 7 7 2 2 4 5 13 13 8 6 6 8 9 12 15 14 13 11 13 15 12 11 12 11 10 10 10 10 10 10 9 9 8 8 9 10 10 9 9 10 10 11 10 10 10 8 8 8 7 7 7 7 6 9 10 10 10 9 9 11 12 15 17 19 20 20 20 18 15 13 11 11 11
1 1 2 4 2 3 4 3 3 2 2 2 3 3 4 5 5 5 5 4 3 2 5 3 5 6 1 6 5 2 10 11 9 8 7 9 12 17 18 16 14 14 15 14 12 12 12 11 9 9 10 9 9 9 9 9 8 8 8 9 9 9 9 10 10 11 11 10 9 8 8 7 7 7 7 6 6 8 9 9 9 9 9 10 12 15 18 19 20 19 19 17 14 13 12 12 12
2 1 2 3 3 4 3 2 2 3 2 3 3 3 2 2 4 5 6 5 4 4 4 4 8 7 5 5 3 2 7 8 9 10 9 9 12 16 18 18 16 15 15 14 12 11 10 9 8 9 11 10 10 10 9 9 8 8 8 9 9 9 9 10 10 10 10 10 9 8 7 7 7 7 6 5 6 7 8 8 8 8 8 10 13 16 18 19 19 19 19 17 14 13 13 13 14
3 3 2 4 4 3 3 2 3 4 3 3 2 2 1 2 5 4 5 5 4 4 3 5 8 5 5 4 1 2 7 8 10 10 8 7 10 13 16 16 16 16 15 12 11 10 8 6 6 9 12 11 11 10 9 9 9 9 8 9 9 9 9 9 10 10 10 10 8 7 7 7 6 6 6 5 5 7 8 8 7 7 8 10 13 15 17 18 18 19 19 17 14 13 14 14 15
3 4 4 4 2 2 4 5 5 4 3 4 1 3 2 5 5 2 4 6 4 6 4 3 4 4 5 2 3 2 9 10 8 10 6 5 8 11 13 14 15 16 15 12 11 9 7 4 6 10 13 13 12 11 10 9 9 9 9 9 10 9 9 8 9 10 9 10 9 7 7 7 6 5 5 5 5 6 8 7 7 6 6 8 11 13 15 17 18 18 18 18 15 13 14 14 15
3 1 5 2 2 4 4 5 5 5 3 0 2 2 2 5 3 1 5 6 4 6 3 4 2 5 5 1 2 0 9 9 6 9 6 5 7 8 11 13 13 14 14 13 12 10 7 4 5 9 13 13 11 11 10 9 9 10 10 10 11 10 9 8 9 10 9 9 9 8 7 7 7 6 5 5 6 7 7 7 6 5 5 6 8 11 13 15 17 17 18 18 16 14 14 14 14
2 1 5 1 1 4 4 4 3 5 1 3 2 1 2 3 2 4 8 7 4 3 1 4 3 5 4 2 1 2 6 7 5 8 6 5 9 11 11 11 12 12 11 11 12 11 9 8 7 7 10 9 8 8 9 8 9 10 10 10 12 12 10 8 8 9 9 9 9 8 7 7 7 7 6 6 7 7 8 7 6 5 5 5 7 9 12 15 16 16 17 18 17 16 14 14 14
2 1 5 2 3 2 3 3 4 5 2 3 2 2 3 1 3 6 6 6 1 1 2 6 5 3 3 3 2 3 4 5 4 8 7 7 11 14 13 12 11 10 9 8 9 10 10 9 9 9 8 6 5 6 6 7 7 8 9 10 11 11 11 9 8 8 8 8 7 7 7 6 6 7 7 6 7 7 8 7 6 6 5 5 7 9 12 14 15 15 16 17 18 17 15 14 13
3 3 5 3 2 2 1 2 5 5 2 4 3 4 5 3 3 5 1 5 2 5 4 5 5 3 3 2 4 2 2 4 4 10 9 10 13 15 15 15 13 11 8 7 7 9 10 10 11 11 9 7 6 6 6 5 6 7 8 9 9 11 11 9 8 8 7 7 7 6 5 5 6 6 6 6 6 7 8 7 7 6 5 5 7 9 11 13 14 14 15 17 18 18 17 15 13
4 4 5 3 1 2 1 1 4 4 3 4 1 3 5 1 3 2 1 7 5 5 6 4 5 5 4 4 5 5 4 5 8 11 11 12 14 16 16 14 12 11 9 7 7 7 8 11 11 11 11 9 8 7 7 5 5 6 7 8 9 11 12 10 9 7 7 7 6 6 5 5 4 5 6 7 7 8 9 8 7 6 5 5 6 8 9 11 12 13 15 16 18 18 17 17 15
5 3 4 2 0 1 1 1 3 4 5 4 2 3 6 4 1 0 3 9 6 6 6 4 7 7 7 9 10 8 8 9 11 13 13 13 13 14 14 11 9 9 7 6 5 5 6 9 11 11 11 11 10 7 6 6 5 4 5 8 9 10 11 12 11 8 7 7 6 6 6 5 5 5 5 6 7 9 9 8 8 6 4 4 5 7 8 9 10 11 13 15 16 17 17 17 16
4 3 4 1 2 1 1 3 3 3 6 5 3 5 6 5 3 1 2 4 4 6 4 3 6 6 7 10 12 11 11 12 12 15 16 15 13 13 12 9 7 6 5 5 2 2 4 7 10 12 11 12 12 9 7 6 5 3 3 5 9 9 9 11 11 9 7 7 6 5 5 5 6 5 4 5 7 8 9 8 8 6 4 3 4 5 6 8 9 9 11 13 14 16 16 16 15
2 4 4 2 4 2 3 4 4 3 6 7 3 4 5 3 3 2 3 5 4 4 3 3 4 3 4 6 11 13 14 14 13 14 15 15 15 13 12 10 7 6 4 3 2 2 2 5 9 11 12 12 12 12 9 6 4 3 2 3 6 8 9 9 9 9 8 7 5 6 6 5 5 4 4 6 7 8 9 8 8 6 4 3 2 4 6 7 8 8 9 11 13 14 15 15 14
2 3 4 4 3 3 3 3 5 3 5 7 4 3 4 2 1 3 5 4 1 3 4 4 6 7 6 5 9 13 14 14 14 14 14 13 13 12 12 9 7 5 3 2 2 3 3 3 6 10 12 12 12 12 11 6 3 4 4 4 4 6 9 10 9 9 8 7 6 7 8 7 6 6 6 7 6 9 10 9 8 7 6 4 3 4 6 7 8 6 7 9 11 12 13 13 13
3 1 4 2 4 3 2 2 4 3 4 5 5 4 2 1 1 2 6 4 4 4 3 5 7 7 7 6 8 11 12 13 12 13 13 12 11 10 9 8 6 4 4 4 3 4 1 3 4 7 11 13 13 13 11 6 4 7 9 8 7 8 10 10 10 11 9 8 8 8 8 7 7 6 6 6 5 8 10 10 9 7 6 5 4 5 7 7 7 5 4 6 8 9 11 12 12
3 1 2 3 4 4 3 1 2 3 5 3 3 2 1 2 2 1 5 3 4 4 5 7 7 8 9 9 9 8 9 10 11 12 12 12 11 10 9 8 7 6 7 7 7 4 5 6 5 5 11 15 14 14 11 5 5 8 10 13 12 12 13 12 10 9 9 9 8 8 7 6 7 6 5 5 5 5 6 7 8 7 6 5 5 5 4 4 6 7 4 5 6 7 9 11 11
5 0 3 4 3 4 3 3 2 4 4 2 2 1 1 3 1 2 5 2 4 6 7 9 9 11 12 9 7 7 9 10 11 12 12 12 11 9 8 8 8 7 8 8 9 5 6 6 5 5 10 16 16 13 10 6 8 9 12 15 14 13 13 12 11 10 10 9 8 8 8 9 8 8 7 5 5 6 5 4 6 7 4 4 5 4 4 4 8 8 5 4 5 6 8 9 10
4 1 2 2 1 2 5 5 3 2 2 2 3 1 3 4 3 1 4 5 5 7 8 8 9 10 9 7 6 7 9 10 11 12 12 11 9 9 8 8 8 8 9 9 9 7 5 5 5 5 9 16 16 11 9 9 11 12 14 15 15 14 13 14 12 11 11 11 11 10 10 10 10 9 9 7 6 6 6 6 7 7 5 4 5 5 5 7 9 8 5 4 4 4 5 7 8
1 1 1 2 2 2 4 4 4 3 2 1 2 3 6 4 3 1 4 8 6 7 7 6 7 7 6 6 6 8 8 8 10 11 12 10 9 9 9 8 8 9 9 8 8 8 6 5 5 5 7 12 12 10 12 14 14 15 17 18 18 17 16 16 14 13 13 12 10 10 10 10 11 10 9 8 8 8 8 8 8 7 7 6 7 7 7 8 8 7 6 6 6 4 3 5 5
2 2 2 2 4 5 3 5 6 4 2 3 4 4 5 3 2 3 4 7 7 8 7 5 7 6 6 5 6 8 8 8 9 10 10 10 9 10 9 7 8 8 7 8 8 8 6 5 6 6 6 8 10 13 15 16 16 18 19 19 19 18 17 16 15 15 15 13 12 11 10 10 9 9 9 9 9 9 9 8 8 9 9 8 8 8 7 7 6 7 7 7 6 5 5 5 3
1 4 4 6 5 6 4 6 6 4 2 5 7 3 3 3 2 5 7 9 7 9 8 6 7 6 6 6 5 8 9 9 9 9 10 9 9 8 8 7 7 6 7 9 7 6 6 5 7 8 10 11 13 16 17 17 19 20 20 19 18 18 17 16 16 16 15 14 13 12 11 10 10 10 10 10 10 10 10 10 10 11 11 10 9 8 8 8 7 7 7 5 4 3 5 6 3
2 4 2 7 6 5 6 7 6 6 3 5 7 2 4 3 5 4 9 10 7 8 8 7 7 6 6 6 5 6 8 10 10 10 10 9 8 7 8 8 6 7 8 8 6 7 8 7 8 11 15 16 17 17 18 20 20 20 21 20 19 18 17 17 17 16 15 15 13 12 13 13 13 12 11 11 12 12 12 12 12 11 11 10 9 7 7 7 7 7 6 4 2 2 4 5 4
1 2 1 3 6 5 7 5 6 7 3 6 7 2 6 7 5 4 8 10 9 8 7 7 6 6 6 5 5 5 8 10 9 10 9 8 8 6 8 8 6 8 9 8 7 8 9 10 11 14 17 17 20 21 20 22 22 21 22 21 19 17 17 18 18 17 17 16 15 15 15 15 15 13 13 14 14 15 15 15 14 13 11 9 9 8 7 8 7 7 6 5 4 3 3 2 2
1 1 1 1 2 5 7 1 8 7 1 5 7 2 6 7 4 6 7 9 10 9 7 7 6 6 6 5 5 4 6 9 10 9 9 8 7 6 7 7 7 9 10 9 9 8 10 13 14 16 17 17 21 23 21 22 22 22 22 21 19 17 17 18 19 18 18 18 18 18 17 16 16 16 15 15 16 16 16 16 16 15 13 12 12 12 11 11 10 10 9 7 6 5 3 2 1
1 1 3 2 2 5 7 1 8 7 1 4 6 2 7 7 5 7 6 7 8 8 8 7 7 7 6 5 6 5 5 9 10 9 8 7 6 5 6 7 8 10 11 10 9 10 12 14 15 16 18 19 22 23 22 23 23 22 21 22 21 19 19 20 20 19 19 20 19 19 18 17 17 17 16 16 16 17 17 18 18 17 16 15 16 16 16 16 14 13 13 10 9 8 6 5 5
2 2 3 3 2 3 4 2 5 7 4 2 4 3 4 5 5 7 7 8 8 7 8 8 8 8 7 6 5 5 5 7 8 9 8 7 5 5 6 8 10 11 11 10 10 12 15 15 16 18 20 21 22 23 24 25 24 23 23 24 23 22 22 23 22 21 21 21 20 20 20 19 18 18 18 17 17 18 18 19 19 18 17 18 19 20 20 20 17 16 17 15 13 11 9 8 7
4 1 3 4 3 2 2 4 4 5 6 5 6 4 5 5 4 8 8 9 8 8 10 10 9 8 7 6 6 6 6 5 6 9 9 8 6 6 8 9 11 11 12 13 12 13 16 16 17 20 23 23 23 25 27 26 26 26 26 27 26 26 26 26 25 24 24 23 22 22 22 21 21 20 19 18 19 20 20 20 19 18 18 18 20 22 22 21 20 19 19 19 18 16 14 12 10
3 3 2 4 3 3 3 4 3 6 5 5 5 6 10 8 5 7 8 9 9 9 9 8 8 8 7 7 7 7 7 5 7 11 11 9 8 8 9 11 12 13 15 16 16 16 18 20 20 20 23 25 26 27 29 28 28 29 29 29 29 28 28 27 26 26 26 25 25 24 23 24 23 22 21 20 21 21 21 21 20 19 18 19 20 22 22 21 21 20 20 20 21 22 20 15 11
6 5 4 4 4 4 4 4 4 7 5 5 7 7 10 10 7 8 8 8 9 9 6 6 7 7 7 7 6 7 7 6 9 13 12 10 9 9 11 13 14 15 17 18 19 19 20 21 21 20 20 24 26 27 28 29 29 30 29 29 29 28 27 27 26 26 26 26 25 25 24 24 24 23 23 22 22 22 22 22 21 20 19 19 21 22 23 21 20 20 21 21 21 23 24 19 15
5 4 3 4 4 5 4 3 4 5 4 6 9 8 9 8 9 10 9 8 9 9 7 7 8 7 8 8 7 7 7 7 11 13 12 11 11 11 13 15 16 17 18 18 18 18 18 18 19 19 20 22 25 25 27 28 28 28 29 29 30 29 28 28 27 27 26 26 25 24 24 24 23 23 23 23 23 24 25 24 24 23 22 22 24 24 23 20 20 20 21 23 23 25 27 25 19
6 5 5 5 4 5 5 3 3 1 2 6 5 6 9 8 8 8 7 8 11 13 11 10 11 10 8 8 8 7 6 6 10 12 12 13 13 13 14 16 17 18 19 17 16 17 17 18 19 21 21 22 23 25 26 26 26 27 28 29 30 29 28 28 29 28 27 26 25 24 24 24 24 25 25 25 26 27 28 29 28 28 26 26 26 24 22 21 21 20 21 24 25 27 28 28 23
7 5 4 5 4 4 4 3 2 1 2 4 5 5 8 9 8 7 9 11 12 13 14 12 12 11 9 10 9 8 7 7 8 9 12 15 15 15 16 16 18 19 18 16 15 17 17 17 19 21 21 21 23 23 25 26 26 26 27 29 30 30 30 30 30 29 27 27 27 26 26 26 27 28 28 28 29 29 29 30 30 29 28 27 26 25 24 24 23 22 22 23 24 26 27 27 26
6 5 4 4 4 2 3 4 3 2 1 2 4 5 7 8 8 8 10 9 5 6 9 8 9 11 10 10 10 10 10 9 8 8 11 15 16 16 16 17 18 19 18 16 15 16 16 17 19 20 20 21 22 22 24 26 28 29 29 30 30 31 32 31 31 31 30 30 31 30 30 30 30 30 30 29 29 29 29 29 28 27 27 26 26 26 26 25 24 24 23 23 23 25 26 26 25
4 5 6 4 4 5 5 3 2 3 4 2 3 6 6 6 9 10 5 0 0 2 5 6 7 8 8 9 9 10 10 11 10 9 10 14 17 17 17 19 19 18 18 16 16 17 17 18 19 20 21 21 22 24 26 28 29 31 32 32 32 33 32 32 33 33 32 33 33 32 31 30 30 30 29 28 28 28 27 27 27 27 27 26 26 27 26 25 24 23 23 23 24 23 23 24 23
5 5 7 7 7 6 5 1 3 4 5 3 1 2 7 3 6 9 1 2 4 3 5 9 7 7 8 9 9 9 8 9 10 10 11 14 17 18 18 20 19 18 17 16 16 17 18 19 20 21 22 23 24 26 28 29 30 32 33 34 34 34 31 30 32 33 33 34 33 32 31 29 29 29 28 28 27 27 27 26 26 26 26 26 25 25 25 24 23 23 22 22 23 21 20 22 22
4 5 7 8 8 7 6 3 1 2 4 3 3 2 7 6 5 9 4 5 8 6 7 9 7 7 9 9 8 9 9 9 8 9 12 14 17 19 19 21 20 19 18 18 18 18 19 20 21 22 24 26 28 29 29 29 31 32 33 34 34 35 33 30 31 32 33 33 32 31 30 29 28 28 28 27 26 26 26 25 25 25 25 25 24 24 24 23 23 22 21 21 21 20 20 22 20
4 5 5 7 8 7 7 4 3 4 3 4 1 3 5 8 7 8 7 8 8 9 10 10 8 8 8 8 8 9 10 10 10 9 11 14 18 19 20 22 21 20 20 20 21 21 23 25 25 27 28 28 29 27 26 28 31 33 34 35 34 35 36 34 32 33 32 32 32 31 30 29 27 27 27 26 25 25 25 25 24 24 24 24 23 24 23 21 21 20 20 20 20 20 20 20 19
5 4 5 6 6 5 3 4 1 1 2 3 2 3 3 9 6 1 3 7 8 11 14 14 12 10 8 9 9 9 9 10 11 10 11 15 18 19 21 23 22 22 22 22 23 24 26 28 27 28 27 26 25 22 22 26 31 34 36 37 36 35 36 35 33 33 32 31 31 30 29 28 27 26 25 25 24 24 23 23 22 22 22 22 21 21 20 19 18 18 18 18 17 18 17 16 16
4 3 6 6 4 4 5 4 3 3 2 4 5 4 3 9 5 3 2 4 9 12 13 13 12 11 10 10 9 9 8 8 9 11 14 17 19 21 22 23 23 23 23 23 24 25 26 27 26 26 25 23 22 21 22 26 32 35 36 39 39 37 35 35 33 32 31 30 30 29 28 27 26 25 24 23 22 22 21 20 20 20 20 19 19 18 18 17 17 17 17 16 15 16 16 15 15
6 6 7 7 6 5 4 3 5 2 5 6 9 10 6 7 4 5 4 5 8 9 8 6 9 11 12 11 10 9 8 8 8 10 14 17 19 21 23 24 23 23 23 24 24 26 26 26 26 25 24 22 23 23 24 28 32 35 36 38 40 38 36 36 34 32 31 30 30 29 27 26 25 24 23 22 21 19 19 19 19 19 18 18 17 17 17 17 16 16 15 15 14 14 14 14 14
7 5 5 4 3 4 4 4 4 1 7 5 11 12 10 8 6 3 5 6 5 7 7 8 10 12 12 11 10 11 9 9 9 9 11 16 18 21 23 24 24 24 25 25 25 26 26 26 26 25 24 23 24 25 26 30 33 35 36 37 38 38 37 36 35 33 31 30 30 28 27 25 24 23 21 21 20 18 18 18 18 18 18 17 17 17 16 16 15 14 14 14 13 13 13 12 12
4 5 6 3 1 2 2 2 1 4 6 3 7 8 7 10 7 5 8 9 6 6 7 8 11 12 12 11 11 11 10 10 10 9 9 12 16 19 21 23 25 25 26 26 27 27 27 27 27 27 26 26 27 28 30 33 34 34 35 36 36 36 35 34 34 32 31 29 29 27 26 25 24 23 21 21 20 18 18 18 18 18 18 17 16 16 15 15 14 13 13 13 13 13 12 12 13
6 7 7 5 3 1 3 3 2 5 5 4 3 5 4 6 4 8 12 9 5 5 6 7 11 13 13 12 11 10 10 10 10 9 9 11 15 19 21 23 25 26 27 28 28 29 29 29 28 29 28 28 30 32 33 34 34 34 35 35 35 34 33 33 32 31 30 28 27 26 25 24 24 23 22 21 20 18 18 18 17 17 17 16 15 14 13 13 12 12 12 12 12 12 11 11 11
6 6 6 6 6 4 4 4 4 4 4 4 1 3 4 2 2 7 8 5 4 4 4 3 7 9 10 9 9 9 10 10 8 9 10 12 17 20 22 24 25 27 29 29 30 30 31 31 30 31 31 31 33 34 35 35 34 34 34 34 34 33 33 32 30 29 28 27 26 26 25 24 23 23 22 21 19 18 17 17 16 16 15 14 13 12 12 11 11 11 11 11 11 10 9 9 9
4 2 4 4 6 5 3 3 5 3 2 3 3 4 4 4 4 4 2 4 4 4 2 5 6 7 9 9 9 10 10 10 9 9 9 12 18 21 22 24 26 28 29 30 31 32 32 32 32 33 33 34 34 35 35 35 35 34 33 33 33 32 31 30 29 28 27 26 26 25 25 23 23 22 21 20 18 17 16 15 14 14 13 12 11 11 10 10 9 9 9 9 9 9 8 7 7
2 2 4 4 4 5 3 3 1 2 3 4 3 5 5 3 6 3 2 2 3 2 1 6 6 8 10 9 10 10 10 10 10 10 10 13 18 21 23 25 27 29 30 30 32 33 34 34 34 34 34 34 35 35 35 35 35 34 33 33 32 31 30 29 29 28 27 26 25 25 24 23 22 21 20 19 17 16 15 14 13 13 12 11 10 9 8 8 8 8 7 7 7 6 6 5 5
5 4 6 2 2 1 2 2 3 1 4 4 4 7 5 2 5 2 3 3 5 5 5 6 6 8 10 10 10 11 11 11 10 10 11 15 19 21 24 26 27 29 31 31 32 33 33 34 35 36 36 35 35 35 35 35 34 34 33 32 31 30 30 29 29 29 27 27 26 24 24 23 21 20 19 18 16 15 14 13 12 12 11 10 9 8 7 7 6 6 5 5 4 4 3 3 3
5 4 5 4 1 1 3 2 3 2 4 5 3 5 6 7 6 3 5 9 9 9 8 7 9 11 11 10 11 11 11 10 10 10 10 13 19 22 25 27 27 29 30 31 32 32 33 33 34 35 35 35 35 35 35 34 34 34 33 32 31 30 29 28 28 28 27 27 26 24 23 22 21 19 18 17 16 15 14 13 12 11 10 9 8 7 6 5 4 4 3 3 2 2 2 2 2
3 1 2 2 2 3 4 3 3 3 3 5 3 3 5 7 7 8 11 13 13 12 10 11 13 14 12 10 11 11 12 12 11 12 11 13 20 23 26 28 29 30 30 30 32 32 32 33 33 34 34 34 34 34 35 34 33 33 33 31 30 29 29 29 28 28 27 26 25 24 23 22 21 19 18 17 15 15 14 12 12 10 9 8 7 6 5 4 3 2 2 1 1 0 1 2 2
3 3 4 3 2 2 1 1 2 3 2 3 3 7 8 4 4 10 13 14 14 14 13 13 13 13 11 10 11 12 12 12 11 11 11 14 20 23 25 28 29 30 30 30 31 32 32 33 33 34 34 35 35 34 35 35 33 33 33 32 31 30 30 29 28 27 26 26 24 23 22 21 20 19 17 16 15 14 13 12 11 10 9 7 6 5 4 3 2 1 0 0 1 1 2 2 3
6 6 7 8 6 4 2 4 3 4 3 4 3 9 11 3 2 5 9 11 12 13 14 13 12 13 12 11 12 12 12 12 12 11 11 14 19 22 25 28 29 29 30 30 31 32 33 33 34 34 35 36 36 36 35 35 34 34 33 33 32 31 30 29 29 27 26 26 24 23 22 21 20 19 17 16 15 14 12 11 10 9 8 7 5 4 3 2 1 1 1 1 2 2 3 3 3
Wind_Direction
340 341 351 351 342 337 330 76 68 334 79 86 106 94 47 80 92 74 53 31 56 304 268 92 35 53 88 101 104 84 48 18 92 107 130 150 113 123 116 128 148 149 153 158 165 167 155 146 140 140 139 139 137 131 125 114 111 105 101 96 95 99 101 105 104 101 96 95 94 89 84 85 85 82 80 79 79 78 78 78 79 80 79 75 69 61 55 49 43 38 32 27 24 21 21 20 23
348 353 4 353 341 10 302 91 85 354 58 68 43 99 100 62 69 79 80 78 128 248 257 66 56 68 94 107 98 74 39 9 41 93 107 104 109 125 116 129 150 147 151 159 165 164 156 153 151 149 147 148 145 138 131 121 117 108 101 94 92 100 103 103 102 102 98 98 97 95 91 85 86 84 82 82 81 81 79 77 78 80 78 73 66 58 52 46 41 35 29 22 15 9 4 3 7
351 356 359 4 8 61 37 46 86 84 72 91 19 331 88 75 94 107 108 109 222 243 48 39 45 45 72 75 57 69 71 13 37 69 93 80 88 119 117 127 147 150 150 157 165 166 160 157 157 155 152 151 149 144 137 129 122 111 100 94 94 100 107 107 102 103 100 100 98 101 100 89 87 86 84 82 79 80 77 74 76 77 75 72 64 56 49 44 38 32 27 21 15 11 7 5 6
349 355 348 3 33 31 51 50 101 109 100 129 71 345 93 107 124 111 121 116 8 43 67 49 52 22 72 77 49 71 86 15 31 49 98 58 63 109 116 120 143 150 147 155 164 167 164 161 160 159 156 154 153 148 143 137 127 116 104 98 96 99 111 113 107 108 106 105 101 102 103 94 91 89 87 82 79 78 77 76 76 75 72 70 61 50 41 36 32 27 24 19 16 15 18 24 28
350 0 342 11 73 26 78 74 81 94 127 167 117 122 120 123 125 114 136 101 54 69 71 68 87 42 71 64 26 68 331 291 43 55 93 89 84 108 117 123 143 145 144 153 157 162 165 164 163 163 162 158 155 150 147 140 133 125 113 104 95 96 112 119 114 113 114 112 107 104 102 99 98 93 90 84 80 79 80 80 76 72 69 65 54 41 34 29 27 24 21 18 17 21 28 39 50
352 4 4 63 102 148 83 65 65 74 175 158 125 159 138 131 132 128 120 58 47 80 88 66 100 97 74 40 59 77 339 302 78 51 72 110 99 111 124 129 142 144 149 152 149 153 156 165 167 165 166 162 158 154 152 145 140 134 122 111 99 97 111 121 119 117 118 117 115 109 107 105 104 98 94 87 82 85 84 81 77 73 66 59 46 36 31 27 26 24 21 19 21 28 37 49 63
349 358 37 53 358 60 85 98 97 77 355 110 132 148 135 138 139 129 122 70 12 29 78 88 117 98 72 137 82 55 39 53 86 62 82 116 110 114 126 132 141 143 154 158 151 148 145 159 169 169 169 165 163 160 158 153 148 142 131 121 106 105 115 120 118 118 120 122 121 112 108 104 105 103 98 94 88 91 88 84 82 74 63 51 41 34 31 29 27 25 23 23 26 35 45 56 68
344 342 55 76 24 33 87 102 98 120 41 62 131 143 136 138 132 127 135 119 75 10 37 75 111 90 8 82 98 56 51 55 66 79 109 124 107 110 125 132 136 129 147 161 152 150 147 153 168 174 173 169 167 165 163 157 153 145 135 127 114 116 122 122 121 121 121 121 123 116 109 104 107 106 101 101 93 96 96 91 85 74 60 46 38 37 34 32 29 27 27 28 32 42 50 59 67
3 163 24 75 55 42 80 82 68 118 101 80 92 112 125 117 114 121 115 85 126 90 18 19 90 100 112 73 93 55 45 52 66 68 90 122 110 111 121 120 125 123 132 148 146 149 148 152 166 175 179 176 171 168 167 163 159 152 143 132 120 123 127 129 129 128 127 125 126 121 116 110 110 111 109 108 101 103 100 94 87 76 61 49 44 41 37 35 33 31 32 33 38 47 53 59 64
46 93 60 76 57 63 70 62 76 107 119 133 100 99 102 62 83 96 106 95 115 93 7 33 78 110 138 88 88 34 35 51 70 63 67 108 121 120 122 111 112 119 121 131 135 141 144 154 166 179 184 180 175 170 169 169 165 161 154 142 130 130 132 136 138 136 134 133 134 132 129 120 116 119 120 113 108 111 105 97 91 78 61 54 48 42 40 38 37 36 36 38 42 50 55 59 62
41 344 84 77 40 75 134 129 104 119 124 115 52 19 67 43 73 75 94 95 86 77 358 44 84 117 110 78 132 73 52 54 60 66 65 87 124 135 132 120 111 113 115 120 124 126 129 151 176 188 187 182 178 172 172 173 170 169 164 152 142 138 137 142 144 146 145 141 142 143 143 133 125 126 126 122 116 115 111 104 93 79 63 55 46 41 41 39 39 40 40 41 45 52 56 59 62
65 334 64 77 49 125 162 136 130 130 93 84 36 308 4 45 62 57 83 92 79 73 16 23 113 134 95 81 187 116 43 43 50 70 82 70 105 134 141 138 124 116 113 114 119 119 110 130 182 191 191 186 178 175 178 175 172 176 173 161 152 149 145 147 150 154 156 153 153 152 149 145 146 142 138 136 131 127 121 112 98 85 69 53 43 42 42 43 44 44 44 46 49 52 56 59 63
86 18 78 85 187 130 123 128 148 117 54 107 180 261 34 56 62 110 93 78 60 84 16 332 112 99 94 140 155 129 15 27 57 80 95 63 75 112 135 145 142 130 120 120 123 127 126 129 170 191 193 188 178 178 181 179 181 181 178 169 162 159 152 149 154 161 168 167 164 161 152 148 154 156 159 153 144 142 133 124 114 106 88 61 47 47 47 50 52 49 50 52 54 57 57 58 62
95 127 100 108 318 106 118 118 151 108 58 258 200 244 54 86 110 94 95 75 34 111 116 359 72 89 102 146 76 307 347 16 78 98 104 80 78 89 103 129 145 144 137 135 130 131 138 138 150 177 192 195 193 191 188 187 188 185 184 180 173 166 162 157 153 163 174 178 175 172 163 153 155 160 169 162 155 153 146 143 138 133 115 78 60 55 55 60 59 56 56 57 59 61 61 61 62
119 122 93 91 357 70 142 138 145 119 148 240 200 147 71 83 104 76 95 117 85 291 90 30 37 103 137 164 187 258 326 6 100 123 118 101 92 83 82 100 119 131 138 147 142 138 138 140 147 158 179 198 217 221 210 206 201 194 193 190 181 171 171 164 156 164 176 183 185 183 174 166 160 163 170 163 160 159 156 158 155 151 131 89 68 60 62 66 63 61 61 61 61 61 61 61 60
109 101 74 68 354 73 177 133 117 106 182 220 195 123 76 347 55 86 142 133 114 356 33 13 10 91 110 142 174 194 353 15 134 146 139 122 106 95 89 94 100 104 111 126 142 150 153 152 151 155 166 180 202 216 214 212 206 206 204 200 191 181 180 172 164 166 170 180 189 191 185 176 166 164 166 166 168 166 168 169 165 162 136 95 71 64 67 69 66 63 62 61 61 61 60 58 58
62 73 68 48 0 73 353 83 132 145 186 207 199 97 106 326 4 97 37 72 86 31 46 29 27 77 93 116 127 102 75 82 129 145 142 132 116 104 98 101 103 94 91 100 119 141 163 165 162 161 164 169 178 192 205 206 198 203 209 212 204 191 184 181 179 168 167 175 185 195 193 189 178 177 176 173 179 176 173 176 173 166 139 101 71 65 71 73 69 62 57 57 57 56 55 53 53
55 74 81 65 67 47 279 158 168 150 144 182 176 100 124 152 306 1 51 62 81 64 56 53 56 71 90 104 102 90 93 95 109 117 112 112 106 96 88 91 95 85 79 83 106 135 160 170 172 172 169 168 164 163 185 191 189 190 201 213 214 204 190 188 187 174 172 175 184 197 194 201 196 188 191 188 192 182 173 179 184 175 153 112 73 67 76 79 73 62 54 53 53 51 48 47 47
72 103 82 124 181 41 307 132 111 121 148 166 118 97 123 161 172 79 79 103 111 85 65 75 74 71 80 91 94 90 88 88 94 96 90 85 83 80 73 71 74 68 65 59 70 157 168 175 178 181 175 172 166 153 143 150 164 162 172 202 210 210 202 198 189 180 185 180 181 192 190 207 201 184 192 198 197 186 175 182 188 180 165 124 80 67 77 82 73 64 57 54 53 50 46 43 40
85 101 78 237 191 68 12 78 83 110 141 134 105 93 109 175 162 108 133 119 118 134 155 148 125 129 112 92 92 91 84 81 84 85 82 77 74 73 68 61 54 52 46 26 336 268 219 189 185 186 182 175 170 160 137 131 154 166 143 153 190 197 199 205 196 192 200 197 185 178 185 203 202 187 198 200 192 189 179 182 191 184 177 158 105 78 87 89 77 66 60 59 58 54 49 44 39
55 96 134 219 160 85 352 63 74 68 109 125 140 95 89 210 143 128 150 113 63 215 210 178 158 154 142 116 95 92 86 80 78 78 77 75 74 71 70 63 50 47 20 336 297 287 272 211 194 190 190 179 169 161 141 127 150 187 187 155 167 179 187 196 199 200 195 198 200 180 184 192 187 182 196 198 191 198 186 179 191 189 184 175 143 105 105 102 92 76 58 63 63 56 51 45 40
62 62 150 178 95 113 249 82 62 44 76 94 110 102 126 195 32 145 153 163 221 205 181 141 137 143 139 127 105 93 88 82 79 79 78 76 74 71 69 59 47 40 12 353 335 318 9 124 165 183 192 180 166 160 144 129 141 170 187 180 170 165 171 177 185 197 187 191 205 192 186 186 181 172 181 191 187 198 191 184 188 191 198 184 154 128 123 113 113 119 83 69 62 55 51 42 37
96 323 51 36 72 135 202 109 52 63 77 72 116 152 143 80 317 180 128 174 191 145 131 121 118 126 121 113 106 96 93 92 86 84 85 84 78 71 66 53 43 34 26 15 2 10 89 102 115 151 180 175 162 155 144 140 151 154 170 174 171 163 166 167 161 167 171 183 196 193 178 153 158 157 157 181 179 181 194 193 186 190 203 181 157 151 156 136 131 143 123 80 61 56 47 36 35
94 16 356 10 69 124 149 150 127 87 104 165 113 84 118 122 242 78 93 146 139 118 118 120 118 114 109 103 101 99 98 102 98 91 88 87 81 76 68 57 50 39 37 26 11 35 90 91 96 123 166 169 156 151 149 158 163 150 156 164 162 156 160 163 153 144 146 156 156 159 154 133 140 152 151 164 172 176 187 174 173 193 199 165 162 175 201 176 146 143 131 101 75 57 36 31 38
72 86 311 342 13 142 145 139 134 107 173 194 76 41 234 193 195 120 146 164 136 127 124 121 116 105 103 105 105 99 92 98 105 100 90 83 79 80 73 60 58 48 39 31 23 39 63 67 86 104 152 164 158 159 166 162 157 149 149 152 147 143 142 142 146 146 140 142 138 140 149 143 141 147 147 144 151 165 169 160 168 185 175 168 189 195 198 175 155 146 143 138 109 72 29 34 38
180 123 337 351 305 241 151 146 175 190 224 164 84 272 265 239 205 232 176 167 151 133 132 130 116 106 107 108 109 105 92 90 101 102 92 82 72 70 71 61 57 53 42 39 40 42 42 54 79 93 140 164 166 166 162 154 150 145 140 140 138 137 133 131 138 141 139 141 140 141 149 147 140 140 141 140 142 144 150 162 169 168 157 162 179 182 181 170 160 153 149 145 130 110 64 59 40
200 91 4 303 274 273 179 189 205 189 229 189 164 244 281 298 206 231 189 166 156 136 146 144 122 124 123 109 104 107 98 89 99 103 91 79 70 65 70 67 61 61 55 54 53 47 45 60 79 87 115 151 158 151 149 145 141 138 134 134 134 134 133 135 138 136 135 135 134 138 140 137 135 132 127 129 133 132 134 143 148 152 152 153 162 169 167 161 161 159 153 145 138 127 116 111 70
116 72 352 302 291 293 227 213 214 167 234 186 159 230 296 6 259 222 175 162 160 146 157 152 132 138 130 119 108 105 101 97 102 102 90 81 77 72 75 77 75 74 66 61 57 57 70 89 95 101 117 135 143 142 141 135 131 129 129 130 129 130 135 139 135 130 129 127 128 131 125 120 119 112 107 112 120 125 129 133 138 142 140 140 149 154 147 145 150 152 151 148 141 138 142 140 118
86 79 350 302 335 314 238 219 197 157 194 169 132 334 298 236 237 199 154 157 158 149 159 156 146 148 137 131 120 114 111 108 105 100 99 96 92 87 82 83 90 86 76 70 65 76 96 112 117 119 125 134 138 137 136 131 129 127 124 124 124 126 129 129 125 121 120 120 122 122 119 117 113 109 106 108 114 119 123 126 129 131 131 134 140 143 141 140 142 139 136 134 137 162 162 157 161
31 60 122 306 356 317 251 218 172 153 174 150 125 318 276 249 233 158 150 157 150 152 170 164 154 155 149 143 133 130 122 113 109 106 107 103 97 91 85 86 92 89 88 87 79 89 109 117 128 128 126 133 133 131 132 128 128 128 123 121 122 122 121 117 114 112 112 113 115 116 118 118 116 118 118 114 113 114 116 116 115 114 117 125 128 131 133 130 129 122 113 114 124 139 159 179 205
7 5 49 3 11 288 291 220 156 158 198 126 116 209 260 274 249 172 170 165 156 163 179 171 164 165 158 153 142 138 126 119 115 111 110 103 96 93 90 92 100 100 97 97 92 101 119 122 127 129 129 136 132 130 134 129 127 127 123 121 122 121 119 115 112 111 111 111 112 111 112 115 115 117 117 116 113 110 110 107 102 100 103 108 108 105 106 104 104 100 90 90 95 91 84 61 5
57 54 322 328 168 264 311 18 158 161 205 120 121 196 265 272 224 187 187 176 167 169 180 177 172 171 165 162 149 141 129 121 116 111 109 102 98 101 102 103 110 110 103 103 109 114 123 126 128 129 132 137 131 130 134 130 126 126 123 120 121 123 118 114 112 111 111 111 110 108 107 110 110 111 112 113 110 104 101 98 94 96 99 100 97 94 91 86 85 84 75 67 64 57 49 39 29
345 132 249 259 181 267 317 300 198 156 131 174 184 202 265 266 198 187 194 189 180 174 187 186 179 178 170 164 155 150 141 124 116 113 113 111 112 116 118 120 119 116 110 112 119 121 121 125 133 134 130 131 132 131 130 127 124 124 123 118 118 120 114 111 110 110 111 110 110 107 107 108 107 107 107 108 105 99 98 97 94 96 98 99 96 92 87 80 76 74 68 60 54 48 40 35 33
310 166 233 249 204 226 283 285 254 151 139 197 221 227 248 260 195 189 198 190 188 191 194 190 182 179 175 167 158 160 154 144 137 129 126 125 124 125 125 129 127 121 117 113 116 123 122 123 132 134 129 128 130 128 124 123 123 121 119 116 115 114 110 109 110 109 108 109 109 109 110 110 108 107 106 106 105 101 99 98 96 95 96 96 95 90 85 79 71 68 65 61 54 48 42 38 31
212 190 212 261 248 224 222 255 234 160 163 198 205 237 252 260 233 207 208 192 199 210 199 191 183 174 176 171 164 169 158 153 153 140 137 137 133 133 132 135 134 129 123 116 115 119 117 115 117 120 123 124 124 122 119 120 119 117 114 112 111 108 106 107 107 107 106 107 108 109 110 109 108 107 106 105 103 100 98 95 93 92 92 93 94 90 85 79 71 66 65 63 59 55 50 46 41
182 183 172 200 237 262 233 244 224 166 171 222 208 224 244 248 242 224 215 199 207 220 202 185 187 177 176 175 173 169 155 154 154 144 144 145 140 139 138 136 134 131 127 119 116 115 112 112 110 109 116 119 119 119 118 118 116 113 112 110 107 104 104 105 105 105 105 106 107 108 108 106 105 104 102 102 99 97 95 92 91 90 90 91 89 87 83 77 70 66 65 63 61 59 53 50 58
205 221 223 207 213 264 264 255 253 158 158 238 223 226 245 244 240 228 209 196 209 221 212 197 191 186 181 179 176 162 152 156 150 146 150 150 143 141 140 138 135 133 130 123 120 119 119 120 118 118 123 123 123 122 121 121 119 116 113 108 106 103 105 106 103 104 105 105 106 106 105 104 104 102 100 99 97 96 94 91 90 89 88 89 88 88 86 81 74 69 67 61 58 56 50 47 55
238 240 250 256 228 248 261 243 265 125 171 257 251 246 258 253 243 231 188 183 211 212 207 203 194 191 185 177 171 155 146 150 147 148 153 152 147 143 144 144 142 139 135 128 125 129 132 130 128 129 133 133 132 132 131 129 125 123 118 112 110 106 105 106 104 103 105 106 106 105 105 105 105 103 101 101 98 97 95 92 90 88 88 89 91 90 86 82 77 72 68 64 62 59 53 47 47
233 235 226 251 250 260 294 309 326 18 182 259 291 281 266 261 252 231 193 197 215 211 207 205 193 189 186 176 167 153 151 156 157 159 158 157 151 146 147 148 146 144 140 133 133 139 139 138 138 138 140 140 140 141 138 133 127 125 122 118 116 111 106 106 106 106 107 107 106 106 106 106 106 104 103 101 99 97 94 92 90 89 88 88 89 87 82 79 76 72 69 68 67 65 60 52 48
218 213 196 235 250 231 275 297 299 302 219 250 305 304 271 268 267 242 216 209 214 210 212 209 192 190 185 176 167 159 162 165 165 168 164 160 153 148 151 150 147 146 143 138 140 145 144 144 146 147 146 145 144 143 137 132 127 123 122 120 117 114 109 110 110 108 108 107 106 106 106 106 105 103 102 100 98 96 93 92 90 88 86 85 84 81 78 75 72 70 67 66 66 66 66 59 55
232 199 184 205 221 210 228 266 312 340 336 303 326 316 276 254 254 252 247 196 140 175 189 197 196 189 173 166 168 167 167 167 166 170 170 164 157 154 155 154 150 147 146 144 146 151 150 148 149 150 149 146 144 141 137 134 130 125 122 118 115 114 111 111 110 106 106 107 105 105 104 105 104 102 100 98 96 94 92 91 89 87 85 82 81 79 78 75 72 69 66 65 64 66 71 67 63
258 225 198 199 205 216 217 141 52 2 321 287 111 308 281 270 250 255 281 134 212 203 193 202 193 176 170 169 173 170 167 167 166 168 170 168 161 156 156 156 153 146 146 149 150 152 152 151 151 150 148 145 142 140 138 138 136 132 129 124 120 116 110 108 109 108 107 107 106 106 105 105 103 101 100 97 96 94 92 91 88 87 85 82 81 80 79 76 73 70 66 66 66 64 68 69 66
245 241 202 200 209 218 214 186 121 258 264 275 116 163 274 291 259 248 218 189 218 220 216 214 195 184 183 176 172 168 166 166 164 167 169 168 163 157 157 159 155 148 146 150 151 151 151 150 150 149 144 142 141 138 139 141 139 136 134 129 125 121 115 110 111 111 110 110 109 108 107 105 103 101 100 98 96 94 92 91 88 87 86 84 82 79 78 76 73 72 66 64 65 61 59 64 65
234 247 175 180 202 212 212 193 201 225 257 317 48 123 277 280 256 238 208 199 230 234 228 225 206 198 189 175 174 171 170 167 163 168 170 169 167 162 160 160 157 151 150 152 152 150 147 144 143 142 139 138 139 138 142 146 143 138 134 128 123 120 118 116 116 114 114 114 112 110 109 107 105 103 101 99 97 95 93 91 88 86 85 82 80 77 77 76 73 71 66 62 62 59 57 60 62
241 227 130 136 167 169 140 124 147 315 350 308 262 116 277 271 262 258 188 201 235 240 230 225 209 197 187 182 181 173 170 168 165 169 171 169 169 166 162 160 157 155 155 156 155 152 147 144 143 143 142 143 145 146 148 149 145 140 135 129 123 120 120 119 120 118 118 118 115 113 112 111 109 106 103 101 98 95 92 89 87 84 82 80 78 78 78 76 73 70 67 64 63 64 63 62 64
216 133 88 67 70 75 76 94 90 32 322 237 206 162 237 270 250 120 108 217 233 238 234 225 204 193 191 185 181 173 167 166 165 166 169 169 168 165 161 158 157 157 158 158 157 156 153 150 150 149 150 152 154 157 155 151 147 142 137 132 128 125 124 124 124 122 122 121 118 117 116 113 111 108 105 101 97 94 91 88 86 84 83 83 81 81 80 77 75 73 71 70 68 70 70 68 71
135 89 62 45 28 33 44 53 80 53 276 221 188 181 191 274 269 156 180 220 216 225 236 220 187 187 193 186 181 176 167 166 166 161 164 166 162 161 159 157 158 158 158 159 159 160 159 157 155 152 152 155 157 159 159 155 150 144 139 136 133 132 131 131 129 127 127 126 123 121 119 116 113 110 107 103 100 97 95 92 91 90 89 88 86 84 83 80 78 76 75 73 72 72 72 71 72
115 89 86 70 356 14 22 4 61 188 259 210 187 187 185 232 264 194 229 258 230 213 218 207 189 188 191 184 180 177 169 166 165 160 161 160 157 159 158 158 159 158 158 159 160 162 161 160 158 154 153 157 159 160 161 157 151 145 142 139 138 137 138 137 134 133 133 130 127 125 123 121 118 115 113 110 107 105 102 99 97 95 92 89 87 84 83 81 79 76 75 75 74 73 72 70 67
109 110 116 126 290 6 3 318 130 223 260 241 189 181 199 236 250 243 255 265 245 222 226 208 188 185 186 180 178 176 171 169 166 165 163 161 162 162 161 160 160 160 160 160 161 162 161 161 162 157 155 159 161 161 160 156 151 147 145 143 142 142 141 140 138 138 137 134 132 131 129 127 125 123 120 116 114 111 107 103 99 95 91 88 85 83 81 80 79 76 74 73 71 68 65 61 60
163 144 144 164 173 180 245 242 251 251 269 282 184 162 232 273 266 242 246 252 246 256 264 220 183 182 182 177 173 169 170 172 169 167 166 169 170 167 165 163 162 162 162 162 162 162 161 161 162 158 156 159 160 159 157 154 151 149 148 146 145 145 144 143 142 141 140 138 136 135 134 132 130 127 124 120 118 115 108 102 97 92 89 87 84 82 80 79 77 74 70 68 65 62 59 58 58
185 158 145 168 166 172 210 206 223 250 275 289 229 161 202 217 253 250 250 269 299 313 286 194 165 170 166 160 161 162 170 173 170 171 172 175 173 169 167 165 165 165 164 164 163 163 162 161 161 158 156 158 158 156 155 153 151 151 150 149 148 148 147 146 146 144 142 142 141 138 136 134 131 128 124 121 119 113 106 100 95 91 89 87 84 82 80 77 75 71 67 64 64 62 58 57 57
217 135 121 185 185 179 220 211 183 180 285 280 215 217 221 207 251 264 283 307 334 8 51 133 143 150 146 155 165 168 173 172 172 174 175 177 174 171 169 168 169 167 166 166 165 165 163 161 161 159 158 159 158 157 156 155 154 153 153 153 152 152 151 150 149 147 147 145 144 140 137 135 131 128 124 122 118 111 105 102 97 94 91 88 86 82 78 75 70 67 65 60 61 60 52 49 49
177 144 181 203 174 164 214 278 61 101 264 261 195 242 286 304 267 236 130 299 317 4 149 159 164 159 157 172 175 174 177 173 175 177 175 176 173 173 173 172 172 170 169 168 167 167 166 163 161 160 159 159 159 159 158 156 156 156 156 157 157 157 156 154 152 152 151 148 145 141 138 136 132 129 126 123 119 114 109 104 100 97 95 91 88 84 78 73 65 59 59 54 54 56 45 41 43
132 181 205 163 68 99 145 256 344 41 259 266 206 235 258 248 264 264 128 230 252 243 214 180 175 174 177 185 180 178 176 170 173 174 174 177 175 174 175 174 175 173 171 170 169 170 168 166 164 161 161 161 161 161 159 159 159 158 159 160 161 161 160 158 156 155 153 150 146 144 140 137 134 131 128 125 122 118 113 109 105 102 99 96 91 86 77 70 62 55 56 53 51 56 40 29 32
131 187 196 133 131 222 136 177 238 203 250 278 255 250 241 209 220 218 198 215 222 224 213 194 192 191 191 188 179 177 172 169 175 174 175 178 177 176 174 174 175 174 173 171 170 170 168 167 166 164 164 163 162 162 160 160 161 160 161 163 163 163 162 161 159 156 154 151 148 146 142 139 136 134 131 128 125 121 118 115 110 105 103 99 91 85 78 72 67 58 55 50 46 51 32 15 14
63 87 185 137 141 180 165 173 190 173 232 275 298 298 252 214 193 188 200 210 208 206 202 203 204 198 193 185 176 177 178 179 181 178 179 177 176 177 174 173 174 173 173 171 169 169 167 167 167 165 165 164 163 163 162 161 163 163 163 163 164 165 164 163 160 157 155 152 149 147 145 141 139 137 134 131 128 124 121 117 112 108 104 98 91 87 82 74 65 57 53 45 14 351 357 5 7
159 154 182 189 146 127 183 213 155 140 192 245 276 282 264 229 179 189 197 206 206 200 197 205 207 199 193 184 180 182 182 183 182 177 177 175 173 173 171 172 173 172 171 171 170 169 168 168 168 167 167 165 164 164 164 164 164 165 165 165 166 166 165 163 160 158 157 153 151 149 146 143 141 138 136 133 130 126 121 116 112 107 101 96 90 88 83 72 62 49 18 321 303 315 334 343 352
176 185 190 188 174 148 190 247 205 155 200 197 200 270 267 230 166 204 199 207 209 199 198 205 203 195 191 186 184 185 182 182 182 177 174 172 169 167 167 170 171 170 170 170 169 169 169 170 170 170 169 168 167 166 166 166 166 167 167 167 167 167 166 164 161 160 158 154 153 152 149 146 143 139 138 135 130 124 120 116 110 102 97 94 89 85 80 70 52 8 328 317 313 315 318 321 330